TimePST,TemperatureF,Dew PointF,Humidity,Sea Level PressureIn,VisibilityMPH,Wind Direction,Wind SpeedMPH,Gust SpeedMPH,PrecipitationIn,Events,Conditions,WindDirDegrees,DateUTC
12:48 AM,57.2,53.6,88,30.10,10.0,Calm,Calm,-,N/A,,Overcast,0,2012-11-21 08:48:00
12:53 AM,57.0,54.0,89,30.10,10.0,North,3.5,-,N/A,,Overcast,360,2012-11-21 08:53:00
1:03 AM,57.2,53.6,88,30.10,10.0,Calm,Calm,-,N/A,,Overcast,0,2012-11-21 09:03:00
1:53 AM,57.0,54.0,89,30.09,10.0,Calm,Calm,-,N/A,,Overcast,0,2012-11-21 09:53:00
2:06 AM,57.2,53.6,88,30.09,10.0,Calm,Calm,-,N/A,,Overcast,0,2012-11-21 10:06:00
2:53 AM,55.9,54.0,93,30.09,9.0,NW,3.5,-,0.01,Rain,Light Rain,320,2012-11-21 10:53:00
3:23 AM,55.4,53.6,94,30.09,2.5,Calm,Calm,-,0.03,Rain,Light Rain,0,2012-11-21 11:23:00
3:40 AM,55.4,53.6,94,30.09,3.0,Calm,Calm,-,0.04,Rain,Light Rain,0,2012-11-21 11:40:00
3:51 AM,55.4,53.6,94,30.09,2.0,Calm,Calm,-,0.06,Rain,Rain,0,2012-11-21 11:51:00
3:53 AM,55.9,54.0,93,30.09,2.0,Calm,Calm,-,0.07,Rain,Rain,0,2012-11-21 11:53:00
4:09 AM,55.4,53.6,94,30.09,3.0,Calm,Calm,-,0.02,Rain,Light Rain,0,2012-11-21 12:09:00
4:11 AM,55.4,53.6,94,30.09,2.5,Calm,Calm,-,0.02,Rain,Light Rain,0,2012-11-21 12:11:00
4:17 AM,55.4,53.6,94,30.09,2.0,Calm,Calm,-,0.03,Rain,Light Rain,0,2012-11-21 12:17:00
4:38 AM,55.4,53.6,94,30.08,4.0,Calm,Calm,-,0.05,Rain,Light Rain,0,2012-11-21 12:38:00
4:53 AM,55.0,54.0,96,30.09,2.5,Calm,Calm,-,0.06,Rain,Light Rain,0,2012-11-21 12:53:00
5:21 AM,55.4,53.6,94,30.10,2.5,Calm,Calm,-,0.02,Rain,Light Rain,0,2012-11-21 13:21:00
5:41 AM,55.4,53.6,94,30.10,4.0,East,3.5,-,0.03,Rain,Light Rain,80,2012-11-21 13:41:00
5:53 AM,55.0,54.0,96,30.10,9.0,East,3.5,-,0.03,,Overcast,90,2012-11-21 13:53:00
6:12 AM,55.4,53.6,94,30.10,10.0,Calm,Calm,-,N/A,,Overcast,0,2012-11-21 14:12:00
6:25 AM,55.4,53.6,94,30.10,2.5,Calm,Calm,-,0.01,Rain,Light Rain,0,2012-11-21 14:25:00
6:40 AM,53.6,53.6,100,30.12,2.0,Calm,Calm,-,0.02,Rain,Light Rain,0,2012-11-21 14:40:00
6:50 AM,53.6,53.6,100,30.12,1.8,Calm,Calm,-,0.03,Rain,Light Rain,0,2012-11-21 14:50:00
6:53 AM,54.0,53.1,97,30.12,2.0,Calm,Calm,-,0.03,Rain,Light Rain,0,2012-11-21 14:53:00
7:04 AM,53.6,53.6,100,30.12,1.8,Calm,Calm,-,0.02,Rain,Light Rain,0,2012-11-21 15:04:00
7:23 AM,53.6,53.6,100,30.13,3.0,Variable,3.5,-,0.06,Rain,Rain,0,2012-11-21 15:23:00
7:35 AM,55.4,53.6,94,30.14,1.8,Calm,Calm,-,0.09,Rain,Rain,0,2012-11-21 15:35:00
7:53 AM,55.0,53.1,93,30.14,1.2,Calm,Calm,-,0.13,Rain,Light Rain,0,2012-11-21 15:53:00
8:10 AM,55.4,53.6,94,30.15,1.8,Calm,Calm,-,0.02,Rain,Light Rain,0,2012-11-21 16:10:00
8:17 AM,55.4,53.6,94,30.15,3.0,Calm,Calm,-,0.02,Rain,Light Rain,0,2012-11-21 16:17:00
8:53 AM,55.9,54.0,93,30.17,8.0,Calm,Calm,-,0.02,,Overcast,0,2012-11-21 16:53:00
9:53 AM,57.0,55.9,96,30.19,10.0,SSE,4.6,-,0.01,,Overcast,160,2012-11-21 17:53:00
10:24 AM,57.2,55.4,94,30.20,10.0,Calm,Calm,-,N/A,,Overcast,0,2012-11-21 18:24:00
10:46 AM,59.0,55.4,88,30.19,10.0,Calm,Calm,-,N/A,,Overcast,0,2012-11-21 18:46:00
10:53 AM,60.1,55.9,86,30.19,10.0,ESE,3.5,-,N/A,,Overcast,110,2012-11-21 18:53:00
11:16 AM,60.8,55.4,82,30.19,10.0,Calm,Calm,-,N/A,,Overcast,0,2012-11-21 19:16:00
11:25 AM,62.6,55.4,77,30.18,10.0,South,4.6,-,N/A,,Overcast,180,2012-11-21 19:25:00
11:35 AM,62.6,57.2,82,30.18,10.0,SW,4.6,-,N/A,,Overcast,220,2012-11-21 19:35:00
11:42 AM,62.6,57.2,82,30.18,10.0,SW,4.6,-,N/A,,Overcast,220,2012-11-21 19:42:00
11:53 AM,62.1,57.0,84,30.17,10.0,SSW,5.8,-,N/A,,Scattered Clouds,210,2012-11-21 19:53:00
12:48 PM,64.4,57.2,77,30.16,10.0,South,6.9,-,N/A,,Mostly Cloudy,170,2012-11-21 20:48:00
12:53 PM,63.0,57.0,81,30.16,10.0,SSW,6.9,-,N/A,,Mostly Cloudy,200,2012-11-21 20:53:00
1:28 PM,62.6,55.4,77,30.15,10.0,South,8.1,-,N/A,,Scattered Clouds,180,2012-11-21 21:28:00
1:53 PM,62.1,55.9,80,30.15,10.0,SSE,6.9,-,N/A,,Scattered Clouds,160,2012-11-21 21:53:00
2:53 PM,64.0,55.0,73,30.14,10.0,SSE,3.5,-,N/A,,Partly Cloudy,150,2012-11-21 22:53:00
3:53 PM,62.1,55.0,78,30.15,10.0,East,4.6,-,N/A,,Mostly Cloudy,90,2012-11-21 23:53:00
4:53 PM,60.1,54.0,80,30.15,10.0,East,3.5,-,N/A,,Clear,100,2012-11-22 00:53:00
5:53 PM,57.9,54.0,87,30.15,10.0,Calm,Calm,-,N/A,,Clear,0,2012-11-22 01:53:00
6:53 PM,55.9,54.0,93,30.17,10.0,Calm,Calm,-,N/A,,Scattered Clouds,0,2012-11-22 02:53:00
7:53 PM,53.1,51.1,93,30.18,10.0,WNW,3.5,-,N/A,,Clear,290,2012-11-22 03:53:00
8:53 PM,52.0,48.9,89,30.18,10.0,NW,4.6,-,N/A,,Clear,320,2012-11-22 04:53:00
9:53 PM,51.1,48.0,89,30.19,10.0,WNW,3.5,-,N/A,,Clear,290,2012-11-22 05:53:00
10:53 PM,50.0,46.9,89,30.20,10.0,NW,4.6,-,N/A,,Clear,320,2012-11-22 06:53:00
11:53 PM,48.0,46.0,93,30.20,10.0,Calm,Calm,-,N/A,,Clear,0,2012-11-22 07:53:00